TimeCDT,TemperatureF,Dew PointF,Humidity,Sea Level PressureIn,VisibilityMPH,Wind Direction,Wind SpeedMPH,Gust SpeedMPH,PrecipitationIn,Events,Conditions,WindDirDegrees,DateUTC
12:52 AM,68.0,61.0,78,29.86,10.0,South,17.3,-,N/A,,Clear,170,2013-05-26 05:52:00
1:52 AM,66.9,61.0,81,29.84,10.0,South,16.1,-,N/A,,Clear,170,2013-05-26 06:52:00
2:52 AM,66.0,62.1,87,29.81,10.0,SSE,18.4,-,N/A,,Clear,160,2013-05-26 07:52:00
3:43 AM,64.4,62.6,94,29.95,9.0,SSW,13.8,-,N/A,Thunderstorm,Partly Cloudy,200,2013-05-26 08:43:00
3:52 AM,64.9,62.1,90,29.84,9.0,South,18.4,-,N/A,Thunderstorm,Partly Cloudy,180,2013-05-26 08:52:00
4:10 AM,64.4,62.6,94,29.93,9.0,South,20.7,28.8,N/A,,Partly Cloudy,180,2013-05-26 09:10:00
4:52 AM,64.9,62.1,90,29.83,9.0,South,17.3,-,N/A,,Clear,180,2013-05-26 09:52:00
5:52 AM,64.9,62.1,90,29.80,10.0,South,21.9,28.8,N/A,,Clear,170,2013-05-26 10:52:00
6:22 AM,64.4,62.6,94,29.91,10.0,South,15.0,-,N/A,,Partly Cloudy,190,2013-05-26 11:22:00
6:52 AM,64.9,62.1,90,29.83,9.0,South,18.4,-,N/A,,Partly Cloudy,170,2013-05-26 11:52:00
7:52 AM,66.9,62.1,84,29.82,10.0,South,19.6,27.6,N/A,,Partly Cloudy,190,2013-05-26 12:52:00
8:24 AM,69.8,62.6,78,29.90,10.0,South,20.7,-,N/A,,Mostly Cloudy,180,2013-05-26 13:24:00
8:50 AM,71.6,62.6,73,29.90,10.0,South,20.7,26.5,N/A,,Mostly Cloudy,180,2013-05-26 13:50:00
8:52 AM,71.1,63.0,75,29.82,10.0,South,19.6,26.5,N/A,,Mostly Cloudy,180,2013-05-26 13:52:00
9:07 AM,71.6,62.6,73,29.90,10.0,South,25.3,31.1,N/A,,Scattered Clouds,180,2013-05-26 14:07:00
9:52 AM,75.9,62.1,62,29.81,10.0,South,25.3,31.1,N/A,,Partly Cloudy,170,2013-05-26 14:52:00
10:52 AM,82.0,59.0,45,29.78,10.0,South,21.9,31.1,N/A,,Clear,180,2013-05-26 15:52:00
11:52 AM,86.0,57.0,37,29.76,10.0,South,26.5,35.7,N/A,,Clear,190,2013-05-26 16:52:00
12:52 PM,90.0,53.1,28,29.75,10.0,South,27.6,34.5,N/A,,Clear,190,2013-05-26 17:52:00
1:52 PM,91.9,54.0,27,29.74,10.0,South,19.6,33.4,N/A,,Clear,180,2013-05-26 18:52:00
2:52 PM,93.9,54.0,26,29.71,10.0,South,24.2,33.4,N/A,,Clear,170,2013-05-26 19:52:00
3:52 PM,93.9,52.0,24,29.70,10.0,South,24.2,33.4,N/A,,Clear,170,2013-05-26 20:52:00
4:52 PM,95.0,52.0,23,29.68,10.0,SSE,26.5,33.4,N/A,,Clear,160,2013-05-26 21:52:00
5:52 PM,95.0,48.0,20,29.66,10.0,South,25.3,36.8,N/A,,Clear,170,2013-05-26 22:52:00
6:52 PM,91.0,55.0,29,29.65,10.0,South,31.1,35.7,N/A,,Clear,170,2013-05-26 23:52:00
7:52 PM,88.0,53.1,30,29.65,10.0,SSE,23.0,36.8,N/A,,Clear,160,2013-05-27 00:52:00
8:52 PM,84.9,55.9,37,29.66,10.0,SSE,21.9,31.1,N/A,,Clear,160,2013-05-27 01:52:00
9:52 PM,79.0,60.1,52,29.68,10.0,SSE,20.7,26.5,N/A,,Clear,150,2013-05-27 02:52:00
10:52 PM,77.0,60.1,56,29.69,10.0,SSE,21.9,33.4,N/A,,Clear,160,2013-05-27 03:52:00
11:52 PM,73.9,62.1,66,29.69,10.0,SSE,23.0,28.8,N/A,,Clear,150,2013-05-27 04:52:00